Location: New Town
(33.2710°N, 90.7534°W)
Time: 13:23:16
(UTC+00:00)

deb Explorer IX - All Passes

Search period start: 13 May 2021 00:00
Search period end: 23 May 2021 00:00
Orbit: 541 x 1098 km, 38.8° (Epoch: 12 May)

Date Brightness Start Highest point End Pass type
(mag) Time Alt. Az. Time Alt. Az. Time Alt. Az.
13 May - 01:46:18 10° SSW 01:52:44 38° SSE 01:58:34 10° E visible
13 May - 03:33:01 10° WSW 03:39:50 82° NNW 03:45:42 10° ENE visible
13 May - 05:21:20 10° W 05:27:21 49° N 05:32:28 10° ENE visible
13 May - 07:09:21 10° WNW 07:14:51 60° NNE 07:19:32 10° E night (unlit)
13 May - 08:56:54 10° WNW 09:01:39 45° SSW 09:05:47 10° SE visible
14 May - 01:22:19 10° SSW 01:28:52 38° SE 01:34:51 10° E visible
14 May - 03:09:02 10° WSW 03:15:59 82° NNW 03:22:02 10° ENE visible
14 May - 04:57:20 10° W 05:03:33 50° N 05:08:51 10° ENE visible
14 May - 06:45:24 10° WNW 06:51:07 61° NNE 06:55:57 10° E night (unlit)
14 May - 08:33:01 10° WNW 08:37:57 46° SSW 08:42:12 10° SE visible
15 May - 00:58:21 10° SSW 01:04:57 39° SE 01:11:06 10° E daylight
15 May - 02:45:02 10° WSW 02:52:07 82° NNW 02:58:20 10° ENE visible
15 May - 04:33:21 10° W 04:39:44 51° N 04:45:13 10° ENE visible
15 May - 06:21:28 10° WNW 06:27:21 62° NNE 06:32:21 10° E visible
15 May - 08:09:08 10° WNW 08:14:14 47° SSW 08:18:37 10° SE night (unlit)
16 May - 00:34:23 10° SSW 00:41:03 39° SE 00:47:19 10° E daylight
16 May - 02:21:03 10° WSW 02:28:14 82° NNW 02:34:37 10° ENE visible
16 May - 04:09:21 10° W 04:15:54 51° N 04:21:34 10° ENE visible
16 May - 05:57:29 10° WNW 06:03:35 62° NNE 06:08:44 10° E visible
16 May - 07:45:12 10° WNW 07:50:31 48° SSW 07:55:02 10° SE night (unlit)
17 May - 00:10:26 10° SSW 00:17:08 40° SE 00:23:31 10° E daylight
17 May - 01:57:04 10° WSW 02:04:19 83° NNW 02:10:53 10° ENE visible
17 May - 03:45:22 10° W 03:52:03 52° N 03:57:54 10° ENE visible
17 May - 05:33:30 10° WNW 05:39:48 63° NNE 05:45:07 10° E visible
17 May - 07:21:16 10° WNW 07:26:46 49° SSW 07:31:26 10° SE night (unlit)
17 May - 23:46:31 10° SSW 23:53:12 40° SE 23:59:42 10° ENE daylight
18 May - 01:33:06 10° WSW 01:40:25 83° NNW 01:47:07 10° ENE visible
18 May - 03:21:22 10° W 03:28:11 53° N 03:34:12 10° ENE visible
18 May - 05:09:31 10° WNW 05:15:59 64° NNE 05:21:29 10° E visible
18 May - 06:57:19 10° WNW 07:03:01 50° SSW 07:07:51 10° SE visible
18 May - 23:22:36 10° SSW 23:29:16 40° SE 23:35:51 10° ENE daylight
19 May - 01:09:09 10° WSW 01:16:30 83° NNW 01:23:20 10° ENE daylight
19 May - 02:57:22 10° W 03:04:19 54° N 03:10:30 10° ENE visible
19 May - 04:45:31 10° WNW 04:52:09 65° NNE 04:57:51 10° E visible
19 May - 06:33:20 10° WNW 06:39:13 51° SSW 06:44:14 10° SE visible
19 May - 22:58:42 10° SSW 23:05:20 40° SE 23:11:58 10° ENE daylight
20 May - 00:45:12 10° WSW 00:52:33 83° NNW 00:59:32 10° ENE daylight
20 May - 02:33:23 10° W 02:40:25 54° N 02:46:46 10° ENE visible
20 May - 04:21:31 10° WNW 04:28:18 66° NNE 04:34:10 10° E visible
20 May - 06:09:21 10° WNW 06:15:26 51° SSW 06:20:36 10° SE visible
20 May - 08:00:27 10° WSW 08:01:21 10° SW 08:02:15 10° SW night (unlit)
20 May - 22:34:49 10° SSW 22:41:24 40° SE 22:48:05 10° ENE daylight
21 May - 00:21:16 10° WSW 00:28:37 83° NNW 00:35:42 10° ENE daylight
21 May - 02:09:24 10° W 02:16:30 55° N 02:23:01 10° ENE visible
21 May - 03:57:32 10° WNW 04:04:27 66° NNE 04:10:29 10° E visible
21 May - 05:45:21 10° WNW 05:51:37 52° SSW 05:56:58 10° SE visible
21 May - 07:36:04 10° WSW 07:37:35 11° SW 07:39:03 10° SSW night (unlit)
21 May - 22:10:58 10° SSW 22:17:27 40° SE 22:24:10 10° ENE daylight
21 May - 23:57:22 10° WSW 00:04:40 83° NNW 00:11:51 10° ENE daylight
22 May - 01:45:26 10° W 01:52:35 55° N 01:59:13 10° ENE visible
22 May - 03:33:31 10° WNW 03:40:34 67° NNE 03:46:47 10° E visible
22 May - 05:21:21 10° WNW 05:27:47 53° SSW 05:33:18 10° SE visible
22 May - 07:11:49 10° WSW 07:13:48 12° SW 07:15:41 10° SSW night (unlit)
22 May - 21:47:08 10° SSW 21:53:31 40° SE 22:00:14 10° ENE daylight
22 May - 23:33:28 10° WSW 23:40:42 83° NNW 23:47:58 10° ENE daylight
